TimeEDT,TemperatureF,Dew PointF,Humidity,Sea Level PressureIn,VisibilityMPH,Wind Direction,Wind SpeedMPH,Gust SpeedMPH,PrecipitationIn,Events,Conditions,WindDirDegrees,DateUTC
12:31 AM,73.4,71.6,94,30.05,10.0,SSE,2.3,-,N/A,Rain,Light Rain,150,2013-07-22 04:31:00
12:43 AM,73.4,71.6,94,30.05,10.0,SSE,3.5,-,N/A,,Clear,150,2013-07-22 04:43:00
12:58 AM,73.6,72.3,96,30.05,10.0,SSE,3.5,-,0.00,,Clear,160,2013-07-22 04:58:00
1:45 AM,73.4,71.6,94,30.03,10.0,WSW,2.3,-,N/A,Rain,Light Rain,240,2013-07-22 05:45:00
1:55 AM,73.4,73.4,100,30.03,10.0,South,3.5,-,N/A,,Clear,190,2013-07-22 05:55:00
1:58 AM,73.4,72.5,97,30.03,10.0,South,3.5,-,0.00,,Clear,180,2013-07-22 05:58:00
2:58 AM,72.7,72.1,98,30.01,10.0,SSW,3.5,-,N/A,,Clear,200,2013-07-22 06:58:00
3:06 AM,73.4,73.4,100,30.01,10.0,SW,3.5,-,N/A,,Partly Cloudy,230,2013-07-22 07:06:00
3:21 AM,73.4,71.6,94,30.00,10.0,SW,4.6,-,N/A,,Mostly Cloudy,230,2013-07-22 07:21:00
3:31 AM,73.4,71.6,94,30.00,10.0,WSW,4.6,-,N/A,,Mostly Cloudy,240,2013-07-22 07:31:00
3:51 AM,73.4,71.6,94,29.99,10.0,SSW,5.8,-,N/A,,Mostly Cloudy,210,2013-07-22 07:51:00
3:58 AM,74.1,72.0,93,29.99,10.0,SW,6.9,-,N/A,,Mostly Cloudy,230,2013-07-22 07:58:00
4:18 AM,73.4,71.6,94,29.99,10.0,WSW,6.9,-,N/A,,Scattered Clouds,240,2013-07-22 08:18:00
4:43 AM,73.4,71.6,94,29.99,10.0,WSW,9.2,-,N/A,,Mostly Cloudy,240,2013-07-22 08:43:00
4:58 AM,73.9,71.6,92,29.99,10.0,WSW,9.2,-,N/A,,Overcast,240,2013-07-22 08:58:00
5:58 AM,73.9,71.1,91,30.00,10.0,WSW,6.9,-,N/A,,Overcast,250,2013-07-22 09:58:00
7:08 AM,75.2,69.8,83,30.03,10.0,West,5.8,-,N/A,,Overcast,270,2013-07-22 11:08:00
7:38 AM,75.2,69.8,83,30.03,10.0,WSW,5.8,-,N/A,,Scattered Clouds,250,2013-07-22 11:38:00
7:48 AM,75.2,71.6,89,30.03,10.0,West,6.9,-,N/A,,Mostly Cloudy,260,2013-07-22 11:48:00
7:53 AM,75.2,69.8,83,30.03,10.0,WSW,4.6,-,N/A,,Mostly Cloudy,250,2013-07-22 11:53:00
7:58 AM,74.8,70.7,87,30.03,10.0,WSW,4.6,-,N/A,,Partly Cloudy,250,2013-07-22 11:58:00
8:33 AM,75.2,71.6,89,30.05,10.0,West,8.1,-,N/A,,Mostly Cloudy,260,2013-07-22 12:33:00
8:58 AM,76.5,71.2,84,30.05,10.0,WSW,8.1,-,N/A,,Overcast,250,2013-07-22 12:58:00
9:03 AM,77.0,71.6,83,30.06,10.0,WSW,5.8,-,N/A,,Overcast,240,2013-07-22 13:03:00
9:13 AM,75.2,71.6,89,30.05,10.0,WSW,5.8,-,N/A,,Overcast,250,2013-07-22 13:13:00
9:23 AM,77.0,71.6,83,30.05,10.0,WSW,8.1,-,N/A,,Mostly Cloudy,240,2013-07-22 13:23:00
9:28 AM,77.0,71.6,83,30.05,10.0,West,5.8,-,N/A,,Mostly Cloudy,270,2013-07-22 13:28:00
9:33 AM,77.0,71.6,83,30.05,10.0,West,8.1,-,N/A,,Mostly Cloudy,270,2013-07-22 13:33:00
9:58 AM,77.7,71.2,80,30.05,10.0,West,6.9,-,N/A,,Mostly Cloudy,270,2013-07-22 13:58:00
10:08 AM,78.8,71.6,78,30.05,10.0,West,9.2,-,N/A,,Scattered Clouds,260,2013-07-22 14:08:00
10:58 AM,79.9,71.6,76,30.05,10.0,West,8.1,-,N/A,,Scattered Clouds,260,2013-07-22 14:58:00
11:28 AM,80.6,71.6,74,30.06,10.0,West,9.2,-,N/A,,Mostly Cloudy,260,2013-07-22 15:28:00
11:38 AM,80.6,71.6,74,30.05,10.0,West,8.1,-,N/A,,Scattered Clouds,280,2013-07-22 15:38:00
11:53 AM,82.4,71.6,70,30.05,10.0,WSW,11.5,-,N/A,,Mostly Cloudy,250,2013-07-22 15:53:00
11:58 AM,82.2,71.8,71,30.05,10.0,WSW,9.2,-,N/A,,Scattered Clouds,250,2013-07-22 15:58:00
12:58 PM,84.0,72.0,67,30.04,10.0,West,12.7,17.3,N/A,,Scattered Clouds,260,2013-07-22 16:58:00
1:58 PM,85.8,72.0,63,30.01,10.0,West,9.2,-,N/A,,Scattered Clouds,260,2013-07-22 17:58:00
2:58 PM,87.1,71.6,60,29.98,10.0,Variable,6.9,-,N/A,,Clear,0,2013-07-22 18:58:00
3:58 PM,85.6,73.8,67,29.97,10.0,SSW,12.7,19.6,N/A,,Scattered Clouds,210,2013-07-22 19:58:00
4:03 PM,84.2,73.4,70,29.97,10.0,SW,11.5,-,N/A,Rain,Light Rain,220,2013-07-22 20:03:00
4:07 PM,82.4,75.2,79,29.97,10.0,WSW,9.2,-,N/A,Rain,Light Rain,240,2013-07-22 20:07:00
4:21 PM,82.4,73.4,74,29.97,10.0,West,5.8,-,N/A,,Scattered Clouds,270,2013-07-22 20:21:00
4:23 PM,82.4,73.4,74,29.97,7.0,West,8.1,-,N/A,Rain,Light Rain,270,2013-07-22 20:23:00
4:28 PM,80.6,73.4,79,29.97,4.0,Variable,4.6,-,N/A,Rain,Heavy Rain,0,2013-07-22 20:28:00
4:38 PM,78.8,75.2,89,29.96,9.0,WSW,5.8,-,N/A,Rain,Light Rain,250,2013-07-22 20:38:00
4:44 PM,80.6,75.2,84,29.96,10.0,SW,5.8,-,N/A,,Scattered Clouds,230,2013-07-22 20:44:00
4:58 PM,82.2,73.6,75,29.97,10.0,Variable,4.6,-,0.14,,Partly Cloudy,0,2013-07-22 20:58:00
5:53 PM,84.2,71.6,66,29.96,10.0,SW,8.1,-,N/A,Rain,Light Rain,230,2013-07-22 21:53:00
5:58 PM,85.3,70.9,62,29.96,10.0,SSW,8.1,-,0.00,Rain,Light Rain,210,2013-07-22 21:58:00
5:59 PM,86.0,71.6,62,29.96,10.0,SW,9.2,-,N/A,,Clear,220,2013-07-22 21:59:00
6:58 PM,82.4,71.6,70,29.96,10.0,SW,17.3,-,0.00,,Mostly Cloudy,220,2013-07-22 22:58:00
7:06 PM,82.4,73.4,74,29.96,10.0,SW,12.7,26.5,N/A,Rain,Light Rain,220,2013-07-22 23:06:00
7:18 PM,78.8,73.4,83,29.96,10.0,SW,17.3,28.8,N/A,Rain,Light Rain,230,2013-07-22 23:18:00
7:28 PM,78.8,73.4,83,29.97,10.0,SW,16.1,24.2,N/A,,Scattered Clouds,230,2013-07-22 23:28:00
7:39 PM,78.8,73.4,83,29.97,10.0,SW,13.8,23.0,N/A,Rain,Light Rain,220,2013-07-22 23:39:00
7:49 PM,78.8,73.4,83,29.97,10.0,SW,16.1,24.2,N/A,Rain,Light Rain,230,2013-07-22 23:49:00
7:54 PM,78.8,73.4,83,29.96,10.0,SW,20.7,27.6,N/A,Rain,Light Rain,230,2013-07-22 23:54:00
7:58 PM,79.0,73.2,82,29.96,10.0,SW,16.1,27.6,0.00,Rain,Light Rain,230,2013-07-22 23:58:00
8:00 PM,78.8,73.4,83,29.96,10.0,SW,17.3,27.6,N/A,,Mostly Cloudy,230,2013-07-23 00:00:00
8:40 PM,78.8,73.4,83,29.95,10.0,SW,11.5,21.9,N/A,,Scattered Clouds,220,2013-07-23 00:40:00
8:58 PM,77.7,72.3,83,29.95,10.0,WSW,13.8,-,0.00,,Partly Cloudy,240,2013-07-23 00:58:00
9:58 PM,76.1,71.2,85,29.95,10.0,West,10.4,18.4,N/A,,Clear,260,2013-07-23 01:58:00
10:23 PM,75.2,71.6,89,29.96,10.0,WSW,9.2,-,N/A,,Mostly Cloudy,250,2013-07-23 02:23:00
10:53 PM,75.2,71.6,89,29.96,10.0,WSW,11.5,-,N/A,,Overcast,240,2013-07-23 02:53:00
10:58 PM,76.1,71.4,85,29.97,10.0,WSW,8.1,-,N/A,,Overcast,240,2013-07-23 02:58:00
11:33 PM,75.2,71.6,89,29.97,10.0,WSW,8.1,-,N/A,,Overcast,240,2013-07-23 03:33:00
11:43 PM,75.2,71.6,89,29.97,10.0,SW,8.1,-,N/A,,Overcast,230,2013-07-23 03:43:00
11:48 PM,75.2,71.6,89,29.97,10.0,SW,9.2,-,N/A,,Mostly Cloudy,230,2013-07-23 03:48:00
11:58 PM,75.9,71.6,86,29.97,10.0,WSW,9.2,-,N/A,,Overcast,240,2013-07-23 03:58:00